Regional Weather Roundup
Issued by NWS Kansas City/Pleasant Hill, MO

Home | Current Version | Previous Version | Text Only | Print | Product List | Glossary On
Versions: 1 2 3 4 5 6 7 8 9 10 11 12 13 14 15 16 17 18 19 20 21 22 23 24 25 26 27 28 29 30 31 32 33 34 35 36 37 38 39 40 41 42 43 44 45 46 47 48
000
ASUS43 KEAX 030810
RWREAX

WEATHER ROUNDUP FOR EASTERN KANSAS AND NORTHWEST MISSOURI
NATIONAL WEATHER SERVICE KANSAS CITY/PLEASANT HILL MO
300 AM CDT MON AUG 03 2015

KSZ040-057-103>105-MOZ028-029-037-043-030900-
...KANSAS CITY METROPOLITAN AREA...

CITY           SKY/WX    TMP DP  RH WIND       PRES   REMARKS
K.C. INTL      MOCLDY    75  66  73 NE12      29.93R
K.C. DOWNTOWN  CLEAR     76  69  79 NE9       29.90R
LEES SUMMIT    PTCLDY    75  66  73 E5        29.92R
OLATHE - IXD   PTCLDY    73  65  75 S6        29.91F
OLATHE - OJC   PTCLDY    74  65  73 CALM      29.91S
LAWRENCE       PTCLDY    72  68  87 S3        29.89F

$$

MOZ001>008-011>017-020>025-030>033-038>040-044>046-053-054-030900-
...NORTHERN AND CENTRAL MISSOURI...

CITY           SKY/WX    TMP DP  RH WIND       PRES   REMARKS
ST. JOSEPH     PTCLDY    72  64  76 SE7       29.90F
MOSBY          PTSUNNY   73  63  68 N8G20     29.94R
WARRENSBURG    PTCLDY    72  64  78 CALM      29.90S
WHITEMAN AFB   CLEAR     71  65  82 SW2       29.90S
CLINTON        PTCLDY    73  68  83 CALM      29.89F
SEDALIA        PTCLDY    72  64  76 SW7       29.91F
WARSAW         NOT AVBL
CHILLICOTHE      N/A     73  64  73 W7        29.89S
KIRKSVILLE     LGT RAIN  71  57  61 NW6       29.86S

$$

MOZ041-047>049-056>058-063>065-088>090-097-030900-
...EASTERN AND SOUTHERN MISSOURI...

CITY           SKY/WX    TMP DP  RH WIND       PRES   REMARKS
ST. LOUIS INTL CLOUDY    82  66  58 W12       29.83S
SPIRIT OF STL  CLOUDY    77  70  79 CALM      29.82F
COLUMBIA       CLOUDY    72  63  73 SW9       29.84F
JEFFERSON CITY MOCLDY    77  62  59 SW6       29.83F
ROLLA          PTCLDY    70  66  87 SW6       29.87F
OSAGE BEACH    CLEAR     75  64  69 SW6       29.89F
SPRINGFIELD    CLEAR     70  63  78 CALM      29.95R
BRANSON        PTCLDY    70  64  83 CALM      29.96R
JOPLIN         CLEAR     72  66  81 S5        29.92F
WEST PLAINS    CLEAR     72  67  84 W3        29.95F

$$

IAZ060-094-KSZ022-034>040-054-083-096-NEZ052-066-093-030900-
...KANSAS...SOUTHEAST NEBRASKA AND IOWA...

CITY           SKY/WX    TMP DP  RH WIND       PRES   REMARKS
TOPEKA         CLEAR     75  69  81 S5        29.89F
MANHATTAN      CLEAR     73  69  87 SW3       29.88S
EMPORIA        PTCLDY    71  66  84 S8        29.91S
CHANUTE        PTCLDY    70  65  84 S6        29.91S
WICHITA        MOCLDY    73  66  78 S5        29.90F
OMAHA          MOCLDY    73  67  81 N5        29.91R
LINCOLN        CLEAR     67  64  90 N8        29.90R
FALLS CITY     CLEAR     74  68  81 SE8       29.87F
LAMONI         PTCLDY    67  62  84 NW5       29.89S
DES MOINES     PTCLDY    71  59  65 CALM      29.91R

$$




USA.gov is the U.S. government's official web portal to all federal, state and local government web resources and services.